Location: ????????
(37.9452°N, 23.1472°E)
Time: 06:55:01
(UTC+00:00)

CZ-2C R/B - Visible Passes

Search period start: 13 July 2024 00:00
Search period end: 23 July 2024 00:00
Orbit: 784 x 868 km, 98.3° (Epoch: 12 July)

Date Brightness Start Highest point End Pass type
(mag) Time Alt. Az. Time Alt. Az. Time Alt. Az.
13 Jul 3.4 01:19:45 31° WSW 01:20:54 34° W 01:25:56 10° NNW visible
13 Jul 4.8 23:19:03 14° ESE 23:21:57 21° ENE 23:26:03 10° NNE visible
14 Jul 2.9 01:00:32 43° SW 01:01:45 50° W 01:07:12 10° NNW visible
14 Jul 5.2 23:00:14 10° E 23:03:10 15° ENE 23:06:07 10° NNE visible
15 Jul 2.6 00:41:19 52° S 00:42:41 76° WSW 00:48:18 10° NNW visible
16 Jul 2.8 00:22:06 48° SE 00:23:39 74° ENE 00:29:16 10° N visible
16 Jul 4.5 02:03:35 13° W 02:04:25 13° W 02:06:57 10° WNW visible
17 Jul 3.4 00:02:53 36° ESE 00:04:41 50° ENE 00:10:05 10° N visible
17 Jul 4.0 01:44:22 20° WSW 01:45:10 20° W 01:49:13 10° NW visible
17 Jul 4.1 23:43:40 26° ESE 23:45:46 34° ENE 23:50:46 10° N visible
18 Jul 3.6 01:25:10 29° WSW 01:25:57 30° W 01:30:50 10° NW visible
18 Jul 4.6 23:24:27 18° E 23:26:54 24° ENE 23:31:16 10° NNE visible
19 Jul 3.1 01:05:56 42° WSW 01:06:48 45° W 01:12:10 10° NNW visible
19 Jul 5.1 23:05:15 12° E 23:08:06 17° ENE 23:11:29 10° NNE visible
20 Jul 2.7 00:46:44 56° SSW 00:47:42 67° WSW 00:53:18 10° NNW visible
20 Jul 5.3 22:47:49 10° ENE 22:49:21 11° ENE 22:50:52 10° NE visible
21 Jul 2.7 00:27:31 58° SSE 00:28:40 84° ENE 00:34:18 10° N visible
21 Jul 4.6 02:09:00 11° W 02:09:30 11° W 02:11:14 10° WNW visible
22 Jul 3.2 00:08:19 45° ESE 00:09:41 57° ENE 00:15:10 10° N visible
22 Jul 4.2 01:49:48 18° W 01:50:14 18° W 01:53:56 10° NW visible
22 Jul 3.9 23:49:07 32° ESE 23:50:44 39° ENE 23:55:53 10° N visible
